Weather History for KAEX - April, 2013

Change the Weather History Date:

Tuesday, April 2, 2013

  Actual Average Record
Temperature  
Mean Temperature 65 °F 63 °F  
Max Temperature 78 °F 75 °F 87 °F (1945)
Min Temperature 52 °F 51 °F 34 °F (1962)
Degree Days  
Heating Degree Days 0 4  
Month to date heating degree days 0 8  
Since 1 July heating degree days 1739 1888  
Cooling Degree Days 0 2  
Month to date cooling degree days 0 4  
Year to date cooling degree days 34 57  
Growing Degree Days 15 (Base 50)    
Moisture  
Dew Point 54 °F    
Average Humidity 70    
Maximum Humidity 93    
Minimum Humidity 47    
Precipitation  
Precipitation T in 0.21 in 2.35 in (1920)
Month to date precipitation T 0.43  
Year to date precipitation 17.84 15.16  
Snow  
Snow 0.00 in - 0.00 in ()
Month to date snowfall 0.0  
Since 1 July snowfall 0.0  
Snow Depth 0.00 in    
Sea Level Pressure  
Sea Level Pressure 30.03 in    
Wind  
Wind Speed 6 mph (ESE)    
Max Wind Speed 16 mph    
Max Gust Speed 23 mph    
Visibility 10 miles    
Events Rain    
T = Trace of Precipitation, MM = Missing Value Source: NWS Daily Summary

Daily Weather History Graph

Daily Weather History Graph

Search for Another Location

Airport or City:

Trip Planner

Search our weather history database for the weather conditions in past years. The results will help you decide how hot, cold, wet, or windy it might be!

Date:

Astronomy

Apr. 02, 2013 Rise Set
Actual Time 6:57 AM CDT 7:30 PM CDT
Civil Twilight 6:32 AM CDT 7:54 PM CDT
Nautical Twilight 6:04 AM CDT 8:23 PM CDT
Astronomical Twilight 5:35 AM CDT 8:52 PM CDT
Moon 1:20 AM CDT (4/2) 12:03 PM CDT (4/2)
Length of Visible Light 13h 21m
Length of Day
12h 33m
Waning Gibbous, 55% of the Moon is Illuminated
Apr 2
Waning Gibbous
Apr 2
Last Quarter
Apr 10
New
Apr 18
First Quarter
Apr 25
Full

Hourly Weather History & Observations

Time (CDT) Temp. Dew Point Humidity Pressure Visibility Wind Dir Wind Speed Gust Speed Precip Events Conditions
12:53 AM 53.1 °F 51.1 °F 93% 30.06 in 10.0 mi Calm Calm - N/A   Clear
1:53 AM 53.1 °F 50.0 °F 89% 30.05 in 10.0 mi Calm Calm - N/A   Clear
2:53 AM 53.1 °F 50.0 °F 89% 30.04 in 10.0 mi Calm Calm - N/A   Clear
3:53 AM 57.9 °F 50.0 °F 75% 30.04 in 10.0 mi East 3.5 mph - N/A   Clear
4:53 AM 57.0 °F 51.1 °F 81% 30.04 in 10.0 mi ENE 3.5 mph - N/A   Clear
5:53 AM 55.9 °F 50.0 °F 80% 30.07 in 10.0 mi East 3.5 mph - N/A   Clear
6:53 AM 54.0 °F 50.0 °F 86% 30.08 in 10.0 mi East 3.5 mph - N/A   Clear
7:53 AM 57.9 °F 51.1 °F 78% 30.08 in 10.0 mi ESE 5.8 mph - N/A   Clear
8:53 AM 62.1 °F 52.0 °F 70% 30.09 in 10.0 mi ESE 6.9 mph - N/A   Clear
9:53 AM 66.9 °F 53.1 °F 61% 30.08 in 10.0 mi ESE 9.2 mph - N/A   Clear
10:53 AM 68.0 °F 55.0 °F 63% 30.09 in 10.0 mi SSE 8.1 mph - N/A   Clear
11:53 AM 73.0 °F 55.9 °F 55% 30.08 in 10.0 mi ESE 9.2 mph - N/A   Clear
12:53 PM 75.0 °F 55.9 °F 51% 30.06 in 10.0 mi ESE 9.2 mph 18.4 mph N/A   Clear
1:53 PM 77.0 °F 55.0 °F 47% 30.02 in 10.0 mi East 9.2 mph - N/A   Clear
2:53 PM 75.9 °F 55.9 °F 50% 29.99 in 10.0 mi SSE 9.2 mph - N/A   Clear
3:53 PM 75.9 °F 55.0 °F 48% 29.99 in 10.0 mi SSE 6.9 mph - N/A   Clear
4:53 PM 73.9 °F 57.9 °F 57% 29.98 in 10.0 mi Calm Calm - N/A   Mostly Cloudy
5:53 PM 73.9 °F 59.0 °F 59% 29.97 in 10.0 mi East 3.5 mph - 0.00 in Rain Light Rain
6:53 PM 71.1 °F 62.1 °F 73% 29.96 in 10.0 mi South 4.6 mph - 0.00 in   Partly Cloudy
7:53 PM 70.0 °F 60.1 °F 71% 29.97 in 10.0 mi Calm Calm - N/A   Partly Cloudy
8:53 PM 69.1 °F 59.0 °F 70% 29.95 in 10.0 mi East 6.9 mph - 0.00 in   Scattered Clouds
9:53 PM 68.0 °F 57.0 °F 68% 29.97 in 10.0 mi ENE 10.4 mph - N/A   Clear
10:53 PM 64.9 °F 53.1 °F 65% 29.99 in 10.0 mi NE 9.2 mph - N/A   Clear
11:53 PM 63.0 °F 51.1 °F 65% 29.97 in 10.0 mi NNE 12.7 mph - N/A   Mostly Cloudy